Regional Weather Roundup
Issued by NWS

Home | Current Version | Previous Version | Text Only | Print | Product List | Glossary On
Versions: 1 2 3 4 5 6 7 8 9 10 11 12 13 14 15 16 17 18 19 20 21 22 23 24 25 26 27 28
000
ASUS45 KREV 270510
RWRNV
NEVADA REGIONAL WEATHER ROUNDUP
NATIONAL WEATHER SERVICE RENO NV
1000 PM PDT MON JUN 26 2017

NOTE: "FAIR" INDICATES FEW OR NO CLOUDS BELOW 12,000 FEET WITH NO
SIGNIFICANT WEATHER AND/OR OBSTRUCTIONS TO VISIBILITY.

NVZ001-003-004-270600-
WESTERN NEVADA

CITY           SKY/WX    TMP DP  RH WIND       PRES   REMARKS
RENO           CLEAR     74  26  16 SE3       30.08R
CARSON CITY    FAIR      70  28  21 SE5       30.12R
MINDEN         FAIR      63  30  29 SE3       30.12S
FALLON         CLEAR     77  17  10 W10       30.03R
LOVELOCK       CLEAR     70  23  17 W10       30.02R
HAWTHORNE      CLEAR     81  23  12 VRB6G17   30.01R
$$

NVZ002-CAZ072-073-270600-
NORTHERN AND CENTRAL SIERRA

CITY           SKY/WX    TMP DP  RH WIND       PRES   REMARKS
S. LAKE TAHOE  CLEAR     59  34  39 VRB3      30.22R
TRUCKEE        CLEAR     52  30  43 S6        30.21R
SQUAW VLY 8000   N/A     50  28  43 SW12        N/A
SUSANVILLE     CLEAR     70  32  24 NW3       30.10R
MAMMOTH LAKES  FAIR      61  28  29 N8        30.29R
BRIDGEPORT     FAIR      56  24  29 NW5       30.24S
$$

NVZ030-031-036-270600-
NORTHERN NEVADA

CITY           SKY/WX    TMP DP  RH WIND       PRES   REMARKS
ELKO           PTCLDY    71  37  28 S8        30.00R
WINNEMUCCA     CLEAR     79  20  11 W20G29    30.00R
WENDOVER         N/A     88  35  15 NW21G26   29.85R
$$

NVZ035-037-270600-
CENTRAL NEVADA

CITY           SKY/WX    TMP DP  RH WIND       PRES   REMARKS
ELY            CLEAR     74  31  20 W8        30.07R
EUREKA           N/A     78  25  14 NW16      30.07R
$$

NVZ013-014-270600-
SOUTH CENTRAL NEVADA

CITY           SKY/WX    TMP DP  RH WIND       PRES   REMARKS
TONOPAH        CLEAR     80  25  13 NW21G29   30.06R
$$

NVZ017-020-022-270600-
SOUTHERN NEVADA

CITY           SKY/WX    TMP DP  RH WIND       PRES   REMARKS
LAS VEGAS      CLEAR     96   8   4 S12       29.80R
N. LAS VEGAS   CLEAR     95  16   5 SW8       29.78R
NELLIS AFB     CLEAR     95  18   6 S13       29.76R
HENDERSON      CLEAR     93  21   7 SW18G24   29.85R
MERCURY        CLEAR     90  18   7 SW16G22   29.85R
$$




USA.gov is the U.S. government's official web portal to all federal, state and local government web resources and services.